Regional Weather Roundup
Issued by NWS Wakefield, VA

Home | Current Version | Previous Version | Graphics & Text | Print | Product List | Glossary On
Versions: 1 2 3 4 5 6 7 8 9 10 11 12 13 14 15 16 17 18 19 20 21 22 23 24 25 26 27 28
000
ASUS41 KAKQ 250415
RWRAKQ

REGIONAL WEATHER ROUNDUP
NATIONAL WEATHER SERVICE WAKEFIELD VA
1200 AM EDT WED MAY 25 2016

Note: "fair" indicates few or no clouds below 12,000 feet with no
significant weather and/or obstructions to visibility. * = Denotes
station may not report precipitation (e.g., rain,snow,etc.),
thunder or fog.

VAZ042-051-052>054-056-250500-
NORTHERN VIRGINIA

CITY           SKY/WX    TMP DP  RH WIND       PRES   REMARKS
WASH NATIONAL  FAIR      65  57  75 S6        30.06S
DULLES         FAIR      59  54  83 CALM      30.08R
FORT BELVOIR   NOT AVBL
QUANTICO       FAIR      62  58  86 NW5       30.08R
FREDERICKSBRG* FAIR      61  59  94 CALM      30.07R
STAFFORD*      FAIR      56  55  95 NW3       30.12R
WARRENTON      FAIR      58  52  82 CALM      30.09R
CULPEPER*      FAIR      57  56  94 CALM      30.10R
MANASSAS*      FAIR      57  57 100 CALM      30.08R
LEESBURG*      FAIR      63  55  77 W3        30.09R
WINCHESTER     FAIR      63  52  67 CALM      30.10R
FRONT ROYAL*   MOCLDY    61  54  77 S5        30.10R
LURAY*         FAIR      57  54  88 CALM      30.13R
$$

VAZ048-049-060>072-079>083-250500-
CENTRAL AND SOUTH CENTRAL VIRGINIA

CITY           SKY/WX    TMP DP  RH WIND       PRES   REMARKS
RICHMOND       FAIR      65  57  75 CALM      30.09R
CHESTERFIELD*  FAIR      66  48  52 CALM      30.11R
PETERSBURG*    FAIR      63  61  94 SW5       30.11R
HANOVER        FAIR      61  57  87 CALM      30.10R
TAPPAHANNOCK*  FAIR      61  61  98 SW3       30.09R
QUINTON*       FAIR      62  60  94 MISG      30.09R
CHARLOTTSVILLE FAIR      64  53  67 W3        30.11R
GORDONSVILLE*  FAIR      58  57  96 CALM      30.10R
ORANGE*        FAIR      61  59  94 CALM      30.11S
LOUISA*        FAIR      61  57  88 CALM      30.09R
BUMPASS*       FAIR      60  58  94 CALM      30.09R
FARMVILLE*     FAIR      64  56  76 SW3       30.10R
CREWE*         MOCLDY    67  57  71 CALM      30.10S
FORT PICKETT*  NOT AVBL
CHASE CITY*    FAIR      61  59  94 CALM      30.13R
CLARKSVILLE*   FAIR      61  59  94 SW3       30.13R
SOUTH HILL*    FAIR      63  56  80 SW5       30.18R
LAWRENCEVILLE* FAIR      60  58  94 CALM      30.12R
EMPORIA*         N/A     59  55  88 CALM      30.13R
$$

VAZ088>098-250500-
SOUTHEAST VIRGINIA

CITY           SKY/WX    TMP DP  RH WIND       PRES   REMARKS
NORFOLK        FAIR      67  56  67 SW5       30.10R
VIRGINIA BEACH FAIR      68  56  65 SW5       30.09S
NORFOLK NAVAL  MOCLDY    68  57  68 SW5       30.11R
WEST POINT*    FAIR      64  59  84 CALM      30.10R
SALUDA*        CLOUDY    67  59  75 SW5       30.08S
NEWPORT NEWS   CLOUDY    66  59  78 SW3       30.09R
LANGLEY AFB    NOT AVBL
FORT EUSTIS    NOT AVBL
WILLIAMSBURG*  FAIR      64  63  94 CALM      30.10S
HR EXEC AP*      N/A     57  55  94 CALM      30.13R
FRANKLIN*      FAIR      64  57  80 CALM      30.11S
US460-WAKEFLD  FAIR      62  57  83 CALM      30.10R
$$

VAZ020-022-025-037-045-250500-
WEST CENTRAL AND SOUTHWEST VIRGINIA

CITY           SKY/WX    TMP DP  RH WIND       PRES   REMARKS
STAUNTON*      FAIR      55  51  89 CALM      30.17R
WAYNESBORO*    FAIR      58  50  74 SW3       30.16R
HOT SPRINGS VA FAIR      61  46  57 NW10      30.23R
LYNCHBURG      FAIR      61  54  77 CALM      30.15R
DANVILLE       FAIR      61  57  87 SW5       30.14S
SOUTH BOSTON*  FAIR      62  58  89 CALM      30.13R
MARTINSVILLE   FAIR      54  53  98 CALM      30.18S
ROANOKE        FAIR      63  53  70 CALM      30.17R
BLACKSBURG     FAIR      55  51  85 CALM      30.22S
DUBLIN*        FAIR      60  51  72 SW5       30.21S
MARION*        FAIR      56  51  85 CALM      30.25S
HILLSVILLE*    FAIR      62  50  66 SW6       30.21F
RICHLANDS*     FAIR      64  35  34 CALM      30.23S
WISE*          FAIR      59  43  55 CALM      30.24S
ABINGDON*      FAIR      58  52  80 CALM      30.22R
$$

MDZ021>025-VAZ099-100-250500-
SOUTHERN MARYLAND AND THE DELMARVA PENINSULA

CITY           SKY/WX    TMP DP  RH WIND       PRES   REMARKS
PATUXENT RIVER CLEAR     67  53  61 SW7       30.06R
BAY BRIDGE APT CLEAR     68  54  60 W3        30.04R
LEONARDTOWN    CLEAR     64  52  63 CALM      30.08S
DOVER          NOT AVBL
GEORGETOWN     CLEAR     68  53  58 SW7       30.05R
EASTON         CLEAR     67  60  78 CALM      30.08S
CAMBRIDGE      CLEAR     61  55  82 CALM      30.05S
SALISBURY      CLEAR     64  54  69 SW7       30.06R
OCEAN CITY     CLEAR     67  53  61 SW10      30.05R
WALLOPS ISLAND FAIR      68  53  58 SW7       30.07S
ACCOMACK*      FAIR      66  55  68 S9        30.08S
$$

NCZ012>017-030>032-250500-
NORTH CENTRAL AND EASTERN NORTH CAROLINA

CITY           SKY/WX    TMP DP  RH WIND       PRES   REMARKS
ROANOKE RAPIDS FAIR      61  57  88 SW3       30.13R
RALEIGH        PTCLDY    66  56  70 CALM      30.15S
ELIZABETH CITY CLEAR     67  60  78 S10       30.12R
AHOSKIE*       CLEAR     59  56  91 CALM      30.13R
EDENTON*       CLEAR    N/A N/A N/A SW10      30.14S
CURRITUCK*     CLEAR     66  60  80 S3        30.12S
KILL DEVIL HLS CLEAR     68  60  76 SW6       30.12S
MANTEO         CLEAR     67  63  85 SW10      30.13S
CAPE HATTERAS  CLEAR     68  63  84 SW8       30.16S
TARBORO*       FAIR      59  58  96 CALM      30.15R
GOLDSBORO      CLEAR     67  60  78 S3        30.15R
WASHINGTON     CLEAR     66  58  77 S6        30.15S
GREENVILLE     CLEAR     68  59  73 SW8       30.16S
NEW BERN       CLEAR     64  58  80 SW6       30.18R
WILMINGTON     CLEAR     65  58  78 SW6       30.19R
$$

VAZ048-250500-
ELSEWHERE

CITY           SKY/WX    TMP DP  RH WIND       PRES   REMARKS
HARRISBURG PA  PTCLDY    67  47  48 NW8       30.02R
BALTIMORE      CLEAR     60  50  69 W6        30.04R
ANNAPOLIS      CLEAR     63  57  81 NW3       30.04R
ANDREWS AFB    NOT AVBL
PHILADELPHIA   CLEAR     65  54  67 E5        30.02R
HENDERSON NC   CLEAR     60  54  78 SW6       30.15R
GREENSBORO     PTCLDY    65  54  67 SW6       30.16S
ROCKY MOUNT    CLEAR     64  56  75 SW3       30.14S
$$

VAZ100-250500-
MARINE

STATION/POSITION TIME  TEMP    WIND        PRES    WAVE   SWELL
                       AIR SEA DIR/SP/G            HT/PER HT/PER
                 (UTC) (F)     (DEG/KT/KT) (MB)    (FT/S) (FT/S)
BRANDYWINE LGT   0300   65     270/ 11/ 16 1016.3R
CAPE MAY NJ      0300   65 65  250/ 14/ 16 1015.7R
LEWES DE         0300   71 62  240/  9/ 12 1016.4R
15NM E FENWICK I 0350   61 57              1016.8R   2/ 9
OCEAN-CITY-INLET 0300   67 60  260/ 10/ 12 1016.6R
WACHAPREAGUE VA  0300   68 68  220/  7/ 10 1018.1R
THOMAS POINT MD  0400   71 63  260/  6/  6 1018.5R
GOOSES REEF MD   0400   68 64  240/  4/  6 1018.7R   0
COVE POINT MD    0300   73     260/  9/ 10 1018.1R
SOLOMONS ISLAND  0300   69 62  270/  3/  4   N/A
BISHOPS HEAD MD  0300   68 70  200/  7/ 11 1017.9R
PINEY POINT MD   0300          100/  2/  2   N/A
POTOMAC MD       0400   68 64  230/  6/  6 1017.2R   0
CAMBRIDGE MD     0300   69 63  200/  3/  5 1016.6R
LEWISETTA VA     0300   70 67  230/  6/  6 1017.6R
RAPPAHANNOCK LGT 0300          170/ 10/ 11 1018.9R
STINGRAY PT      0400   68 65  190/  6/  6 1018.9R   0
YORK RVR RNG VA  0300   69     210/  9/  9 1017.9R
YORKTOWN VA      0300   71 65  220/  8/  9 1018.3R
JAMESTOWN VA     0400   67 68  210/  2/  2   N/A     0
DOMINION TERM VA 0300   70     210/  5/  6 1018.8R
KIPTOPEKE VA     0300      66  160/  7/  7   N/A
CHES BAY BRIDGE  0300   73 65  170/  7/  7 1018.9R
CAPE HENRY VA    0300   72     190/  7/  8   N/A
CHESAPEAKE LGHT  0300   76     190/ 14/ 15 1019.6R
WILLOUBY STN VA  0300   73     220/ 10/ 10 1019.7R
CAPE HENRY BUOY  0312      62                N/A     2/ 9
1ST LANDING BUOY 0400   68 65  200/  6/  8 1018.9S   1/ 5
CAPE CHARLES BUO 0326      63                N/A     2/ 9   2/ 9
OFFSHORE WE BUOY 0321      60                N/A     2/ 9   2/ 9
64NM E OF VA BCH 0350   62 56  220/ 12/ 14 1019.1F   3/ 9   2/ 9
DUCK PIER NC     0300   71 61  210/ 13/ 16 1019.2R
44100 DUCK FRF   0324      62                N/A     2/ 9
44056 DUCK FRF   0311      63                N/A     2/10
OREGON INLET NC  0300   69 69  220/ 13/ 15 1020.3R
HATTERAS NC      0300   68 68  230/  8/ 12 1020.8R
DIAMOND SHLS NC  0350   72 79  240/ 14/ 16 1021.2R   4/ 9   2/ 9
CAPE LOOKOUT C1F1C2F2C3F3C4F4C5F5C6F6C7F7C8M1C9!



USA.gov is the U.S. government's official web portal to all federal, state and local government web resources and services.